SCP
0 0 0 0 0 0 0 0 0 0 0 0 0 0 0 0 0 0 0 -0 -0 -0 -0 -0 0 0 0 0 0 0 0 0 0 0 0 0 0 0
0 0 0 0 0 0 0 0 0 0 0 0 0 0 0 0 0 0 0 -0 -0 -0 -0 0 0 0 0 0 0 0 0 0 0 0 0 0 0 0
0 0 0 0 0 0 0 0 0 0 0 0 0 0 0 0 0 0 0 0 0 0 0 0 0 0 0 0 0 0 0 0 0 0 0 0 0 0
0 0 0 0 0 0 0 0 0 0 0 0 0 0 0 0 0 0 0 0 0 0 0 0 0 0 0 0 0 0 0 0 0 0 0 0 0 0
0 0 0 0 0 0 0 0 0 0 0 0 0 0 0 0 0 0 0 0 0 0 0 0 0 0 0 0 0 0 0 0 0 0 0 0 0 0
0 0 0 0 0 0 0 0 -0 -0 -0 -0 0 0 0 0 0 0 0 0 0 0 0 0 0 0 0 0 0 0 0 0 0 0 0 0 0 0
0 0 0 0 -0 -0 0 -0 -0 -0 -0 -0 0 0 0 0 0 0 0 0 0 0 0 0 0 0 0 0 0 0 0 0 0 0 0 0 0 0
0 0 0 -0 -0 -0 -0 -0 -0 -0 -0 0 0 0 0 0 0 0 0 0 0 0 0 0 0 0 0 0 0 0 0 0 0 0 0 0 0 0
0 0 0 -0 -0 -0 -0 -0 -0 -0 -0 0 0 0 0 0 0 0 0 0 0 0 0 0 0 0 0 0 0 0 0 0 0 0 0 0 0 0
0 0 -0 0 -0 -0 -0 -0 -0 -0 -0 0 0 0 0 0 0 0 0 0 0 0 0 0 0 0 0 0 -0 0 0 0 0 0 0 -0 -0 0
0 0 0 0 -0 -0 -0 -0 -0 -0 -0 -0 -0 0 0 0 0 0 0 0 0 0 0 0 0 0 0 0 0 -0 0 0 0 -0 -0 -0 -0 -0
0 0 -0 -0 -0 -0 -0 -0 -0 0 0 0 0 0 0 0 0 0 0 0 0 0 0 0 0 0 0 0 0 0 0 0 0 -0 -0 -0 -0 0
0 0 0 -0 -0 -0 -0 -0 -0 0 0 0 0 0 0 0 0 0 0 0 0 0 0 0 -0 -0 -0 -0 0 0 0 0 0 0 -0 -0 -0 -0
0 0 0 -0 -0 -0 -0 -0 -0 0 0 0 0 0 0 0 0 0 0 0 0 0 -0 -0 -0 -0 -0 -0 -0 0 0 -0 -0 -0 -0 0 0 0
0 -0 -0 -0 -0 -0 -0 -0 -0 0 0 0 0 0 -0 -0 0 0 0 0 0 0 -0 -0 -0 -0 -0 -0 -0 0 -0 0 -0 -0 -0 -0 -0 -0
-0 -0 -0 -0 -0 -0 -0 0 0 0 0 0 -0 -0 -0 -0 0 0 0 0 0 0 -0 -0 -0 -0 -0 -0 -0 -0 0 0 0 0 0 -0 -0 -0
0 0 -0 -0 -0 -0 0 0 0 -0 0 -0 -0 0 0 0 0 0 0 0 0 0 0 0 0 0 -0 -0 0 -0 0 0 0 0 0 0 0 0
0 0 -0 -0 -0 0 0 0 -0 -0 -0 -0 0 0 0 0 0 0 0 0 0 0 0 0 0 0 0 0 0 0 0 0 0 0 0 0 0 0
0 0 -0 0 -0 -0 -0 -0 -0 -0 -0 -0 0 0 0 0 0 0 0 0 0 0 0 0 0 0 0 0 0 0 0 0 0 0 0 0 0 0
0 -0 0 -0 -0 -0 -0 -0 -0 -0 0 0 0 0 0 0 0 0 0 0 0 0 0 0 0 0 0 0 0 0 0 0 0 0 0 0 0 0
-0 -0 -0 -0 -0 -0 -0 -0 0 0 0 0 0 0 0 0 0 0 0 0 0 0 0 0 0 0 0 0 0 0 0 0 0 0 0 0 0 0
-0 -0 -0 -0 -0 -0 0 0 0 0 0 0 0 0 0 0 0 0 0 0 0 0 0 0 0 0 0 0 0 0 0 0 0 0 0 0 0 0
-0 -0 -0 -0 -0 0 0 0 0 0 0 0 0 0 0 0 0 0 0 0 0 0 0 0 0 0 0 0 0 0 0 0 0 0 0 0 0 0
Wind_Speed_500mb
41 47 46 34 31 24 23 26 48 32 23 21 18 18 19 19 23 18 16 11 11 12 8 6 17 19 20 19 18 15 28 31 24 31 31 21 14 31
45 52 38 35 32 27 24 27 35 13 25 29 31 26 20 20 18 11 15 10 16 14 13 12 10 10 16 10 11 22 24 23 29 29 30 39 20 20
52 45 40 34 34 32 32 40 30 17 29 42 37 32 25 10 18 12 9 13 17 7 8 10 12 12 12 26 23 14 22 27 21 20 9 26 35 26
55 44 38 36 35 39 41 34 22 20 28 49 43 34 26 19 16 11 10 11 10 16 8 10 12 3 7 3 6 12 14 10 13 9 4 12 21 27
48 41 41 38 42 41 36 30 25 28 32 38 47 33 26 16 8 5 7 10 11 14 15 20 28 23 22 2 15 17 16 19 24 27 28 30 29 31
47 42 43 39 40 37 36 30 28 30 31 28 35 31 23 16 4 4 7 10 11 12 13 15 16 17 27 21 17 10 14 16 20 25 25 27 37 28
52 50 45 39 38 32 28 27 27 27 31 34 28 23 13 9 4 4 7 10 11 12 13 12 14 17 19 27 34 33 31 29 32 31 31 28 25 20
61 54 48 41 36 34 36 36 26 25 32 25 20 15 9 4 5 5 6 10 11 7 11 15 14 16 17 27 28 27 27 27 27 29 31 29 29 16
59 55 49 43 42 41 41 45 41 34 23 13 12 15 15 14 9 8 8 8 3 4 10 12 12 13 14 14 17 21 25 24 25 29 29 25 30 13
55 45 42 46 43 39 41 39 36 31 24 23 21 25 21 16 10 7 11 10 9 8 8 7 13 16 19 20 21 23 28 27 29 29 27 32 30 23
46 50 53 49 39 30 26 33 37 40 36 29 27 24 20 18 15 15 14 11 13 19 16 10 9 11 18 25 28 29 29 29 31 32 25 32 34 27
66 59 49 43 37 27 23 33 44 43 32 31 30 26 26 26 24 21 20 15 11 15 21 14 11 5 6 22 28 28 29 32 25 25 30 33 36 41
66 58 51 44 40 40 39 39 40 42 40 34 33 32 30 29 29 28 29 29 31 34 29 14 12 11 12 15 26 28 28 29 30 28 29 36 35 39
65 57 53 50 50 49 47 43 44 40 38 37 35 35 32 33 32 31 31 32 36 42 42 34 31 26 24 26 21 23 26 28 27 26 25 24 22 23
61 59 60 58 58 53 49 45 42 38 37 36 37 37 36 36 32 29 29 29 33 37 40 44 39 27 24 28 28 19 21 28 28 28 27 27 30 29
67 67 63 61 55 54 54 47 40 36 34 36 38 38 37 34 34 31 28 27 32 34 33 35 37 40 38 29 25 27 27 23 25 27 28 25 24 28
70 68 65 59 59 55 52 46 41 38 36 37 37 38 36 34 37 31 31 31 34 32 30 28 30 33 40 40 37 30 26 27 31 31 26 27 30 34
64 66 64 59 57 55 51 49 43 39 37 37 36 35 36 35 35 32 32 33 33 32 32 30 26 25 31 38 38 37 36 35 34 34 33 33 39 42
60 64 62 58 55 52 48 46 45 40 37 34 34 35 34 34 32 34 34 34 35 34 34 33 32 30 28 37 35 35 37 35 31 33 38 40 42 44
60 63 61 57 54 51 48 44 43 41 36 34 35 34 33 32 34 37 37 37 37 36 36 36 40 37 35 34 33 33 33 32 38 31 32 34 38 40
64 61 56 55 52 49 46 43 41 39 34 34 34 33 34 31 36 39 38 38 38 39 43 44 44 36 34 33 37 34 34 32 31 33 24 28 37 44
63 58 56 53 51 47 44 42 41 38 35 33 33 32 33 32 36 37 38 39 41 43 45 42 37 37 44 46 44 38 34 31 31 32 39 39 40 39
61 56 56 53 49 46 43 41 39 37 35 33 32 32 32 32 35 36 37 39 38 39 39 40 40 42 45 45 44 46 41 38 36 35 38 36 33 32
Wind_Direction_500mb
192 204 217 201 197 197 203 216 189 153 148 140 110 106 104 125 115 111 97 64 63 78 61 44 59 65 47 45 58 73 101 102 95 91 80 58 355 36
189 210 195 189 186 186 188 185 182 187 148 147 139 133 130 123 104 87 100 85 87 86 83 82 94 85 92 94 102 93 94 90 90 91 80 59 41 6
182 180 175 173 175 176 176 173 182 185 175 149 148 143 136 138 119 93 100 95 81 51 27 12 19 33 89 101 117 156 111 93 83 70 53 47 40 5
165 168 166 164 166 168 167 170 174 160 169 157 148 141 130 120 107 89 70 49 46 63 354 335 324 9 73 48 114 154 156 151 109 104 34 334 342 9
161 162 157 159 161 160 162 169 160 162 168 156 150 144 133 119 98 44 49 33 21 22 17 54 54 45 49 309 266 280 308 313 314 318 332 325 326 328
152 152 150 156 153 155 157 156 157 154 156 146 149 150 143 130 83 48 10 29 43 43 43 46 42 40 38 28 14 325 307 315 318 314 314 313 308 329
145 144 144 147 146 150 150 145 146 147 142 143 144 146 141 129 118 44 26 44 47 47 29 29 24 17 24 43 33 30 32 33 33 25 13 8 14 34
146 145 142 142 137 134 129 117 107 115 131 136 142 137 127 115 98 53 18 348 350 6 360 12 39 16 22 46 45 36 29 26 21 20 20 18 20 49
145 143 142 141 141 135 129 128 124 125 113 105 129 119 120 112 72 31 357 348 15 20 342 13 26 16 18 358 353 16 19 19 26 38 24 20 18 63
144 144 139 135 133 130 133 130 126 119 115 116 113 111 105 95 83 44 34 27 41 22 357 29 26 32 22 18 20 17 26 31 44 44 45 21 20 31
136 134 129 124 127 130 132 136 133 124 121 116 108 98 95 86 67 48 31 17 47 48 45 43 18 43 27 35 36 38 45 55 70 49 36 29 26 29
134 132 125 123 124 121 121 125 119 111 111 107 103 100 85 74 65 57 50 37 49 49 40 34 37 38 39 42 48 55 57 60 64 48 50 46 51 47
138 130 126 124 123 121 116 116 112 116 114 110 103 91 82 73 67 62 63 64 68 66 43 46 58 81 84 79 60 60 65 61 52 54 52 43 48 47
135 132 128 126 122 120 115 113 111 115 112 106 100 90 80 71 68 65 65 64 65 62 56 62 76 79 82 81 79 67 70 57 47 44 45 43 39 34
134 134 129 128 125 120 116 114 112 110 107 106 95 86 77 73 72 70 69 63 65 62 58 57 60 71 78 73 70 71 66 49 39 40 39 31 24 19
139 134 131 131 128 125 121 116 113 109 109 99 92 84 78 78 78 73 74 73 69 66 61 59 59 62 67 69 68 65 57 55 38 32 31 30 28 23
143 137 136 133 132 126 122 121 117 115 108 97 90 86 82 79 79 78 75 73 71 66 64 64 61 61 67 65 65 58 50 45 37 35 40 44 43 36
140 138 136 135 130 129 128 126 122 117 108 101 95 88 85 81 79 77 72 68 69 67 66 67 65 64 68 66 60 54 53 50 46 51 58 62 55 46
140 139 138 133 131 131 130 126 122 118 111 106 99 90 84 80 78 77 71 68 68 67 69 68 65 61 65 65 58 52 51 49 50 54 55 53 51 47
141 139 135 134 134 135 131 127 124 120 117 111 101 93 87 83 80 77 72 68 68 68 68 65 63 56 60 66 65 55 53 50 52 53 63 60 58 63
142 137 136 136 135 132 129 127 122 119 117 112 103 96 89 83 82 76 73 72 70 68 67 64 60 58 64 74 70 61 52 48 48 51 72 73 65 60
140 140 139 138 134 133 132 130 125 120 115 111 106 99 93 86 83 80 78 76 74 69 67 68 71 70 69 64 63 58 55 54 60 72 70 63 53 45
143 143 141 137 135 133 132 129 125 120 113 109 106 102 94 88 85 82 79 77 76 76 73 72 74 73 69 64 64 61 63 70 80 77 69 60 55 54
Wind_Speed_850mb
41 47 46 34 31 24 23 26 48 32 23 21 18 18 19 19 23 18 16 11 11 12 8 6 17 19 20 19 18 15 28 31 24 31 31 21 14 31
45 52 38 35 32 27 24 27 35 13 25 29 31 26 20 20 18 11 15 10 16 14 13 12 10 10 16 10 11 22 24 23 29 29 30 39 20 20
52 45 40 34 34 32 32 40 30 17 29 42 37 32 25 10 18 12 9 13 17 7 8 10 12 12 12 26 23 14 22 27 21 20 9 26 35 26
55 44 38 36 35 39 41 34 22 20 28 49 43 34 26 19 16 11 10 11 10 16 8 10 12 3 7 3 6 12 14 10 13 9 4 12 21 27
48 41 41 38 42 41 36 30 25 28 32 38 47 33 26 16 8 5 7 10 11 14 15 20 28 23 22 2 15 17 16 19 24 27 28 30 29 31
47 42 43 39 40 37 36 30 28 30 31 28 35 31 23 16 4 4 7 10 11 12 13 15 16 17 27 21 17 10 14 16 20 25 25 27 37 28
52 50 45 39 38 32 28 27 27 27 31 34 28 23 13 9 4 4 7 10 11 12 13 12 14 17 19 27 34 33 31 29 32 31 31 28 25 20
61 54 48 41 36 34 36 36 26 25 32 25 20 15 9 4 5 5 6 10 11 7 11 15 14 16 17 27 28 27 27 27 27 29 31 29 29 16
59 55 49 43 42 41 41 45 41 34 23 13 12 15 15 14 9 8 8 8 3 4 10 12 12 13 14 14 17 21 25 24 25 29 29 25 30 13
55 45 42 46 43 39 41 39 36 31 24 23 21 25 21 16 10 7 11 10 9 8 8 7 13 16 19 20 21 23 28 27 29 29 27 32 30 23
46 50 53 49 39 30 26 33 37 40 36 29 27 24 20 18 15 15 14 11 13 19 16 10 9 11 18 25 28 29 29 29 31 32 25 32 34 27
66 59 49 43 37 27 23 33 44 43 32 31 30 26 26 26 24 21 20 15 11 15 21 14 11 5 6 22 28 28 29 32 25 25 30 33 36 41
66 58 51 44 40 40 39 39 40 42 40 34 33 32 30 29 29 28 29 29 31 34 29 14 12 11 12 15 26 28 28 29 30 28 29 36 35 39
65 57 53 50 50 49 47 43 44 40 38 37 35 35 32 33 32 31 31 32 36 42 42 34 31 26 24 26 21 23 26 28 27 26 25 24 22 23
61 59 60 58 58 53 49 45 42 38 37 36 37 37 36 36 32 29 29 29 33 37 40 44 39 27 24 28 28 19 21 28 28 28 27 27 30 29
67 67 63 61 55 54 54 47 40 36 34 36 38 38 37 34 34 31 28 27 32 34 33 35 37 40 38 29 25 27 27 23 25 27 28 25 24 28
70 68 65 59 59 55 52 46 41 38 36 37 37 38 36 34 37 31 31 31 34 32 30 28 30 33 40 40 37 30 26 27 31 31 26 27 30 34
64 66 64 59 57 55 51 49 43 39 37 37 36 35 36 35 35 32 32 33 33 32 32 30 26 25 31 38 38 37 36 35 34 34 33 33 39 42
60 64 62 58 55 52 48 46 45 40 37 34 34 35 34 34 32 34 34 34 35 34 34 33 32 30 28 37 35 35 37 35 31 33 38 40 42 44
60 63 61 57 54 51 48 44 43 41 36 34 35 34 33 32 34 37 37 37 37 36 36 36 40 37 35 34 33 33 33 32 38 31 32 34 38 40
64 61 56 55 52 49 46 43 41 39 34 34 34 33 34 31 36 39 38 38 38 39 43 44 44 36 34 33 37 34 34 32 31 33 24 28 37 44
63 58 56 53 51 47 44 42 41 38 35 33 33 32 33 32 36 37 38 39 41 43 45 42 37 37 44 46 44 38 34 31 31 32 39 39 40 39
61 56 56 53 49 46 43 41 39 37 35 33 32 32 32 32 35 36 37 39 38 39 39 40 40 42 45 45 44 46 41 38 36 35 38 36 33 32
Wind_Direction_850mb
192 204 217 201 197 197 203 216 189 153 148 140 110 106 104 125 115 111 97 64 63 78 61 44 59 65 47 45 58 73 101 102 95 91 80 58 355 36
189 210 195 189 186 186 188 185 182 187 148 147 139 133 130 123 104 87 100 85 87 86 83 82 94 85 92 94 102 93 94 90 90 91 80 59 41 6
182 180 175 173 175 176 176 173 182 185 175 149 148 143 136 138 119 93 100 95 81 51 27 12 19 33 89 101 117 156 111 93 83 70 53 47 40 5
165 168 166 164 166 168 167 170 174 160 169 157 148 141 130 120 107 89 70 49 46 63 354 335 324 9 73 48 114 154 156 151 109 104 34 334 342 9
161 162 157 159 161 160 162 169 160 162 168 156 150 144 133 119 98 44 49 33 21 22 17 54 54 45 49 309 266 280 308 313 314 318 332 325 326 328
152 152 150 156 153 155 157 156 157 154 156 146 149 150 143 130 83 48 10 29 43 43 43 46 42 40 38 28 14 325 307 315 318 314 314 313 308 329
145 144 144 147 146 150 150 145 146 147 142 143 144 146 141 129 118 44 26 44 47 47 29 29 24 17 24 43 33 30 32 33 33 25 13 8 14 34
146 145 142 142 137 134 129 117 107 115 131 136 142 137 127 115 98 53 18 348 350 6 360 12 39 16 22 46 45 36 29 26 21 20 20 18 20 49
145 143 142 141 141 135 129 128 124 125 113 105 129 119 120 112 72 31 357 348 15 20 342 13 26 16 18 358 353 16 19 19 26 38 24 20 18 63
144 144 139 135 133 130 133 130 126 119 115 116 113 111 105 95 83 44 34 27 41 22 357 29 26 32 22 18 20 17 26 31 44 44 45 21 20 31
136 134 129 124 127 130 132 136 133 124 121 116 108 98 95 86 67 48 31 17 47 48 45 43 18 43 27 35 36 38 45 55 70 49 36 29 26 29
134 132 125 123 124 121 121 125 119 111 111 107 103 100 85 74 65 57 50 37 49 49 40 34 37 38 39 42 48 55 57 60 64 48 50 46 51 47
138 130 126 124 123 121 116 116 112 116 114 110 103 91 82 73 67 62 63 64 68 66 43 46 58 81 84 79 60 60 65 61 52 54 52 43 48 47
135 132 128 126 122 120 115 113 111 115 112 106 100 90 80 71 68 65 65 64 65 62 56 62 76 79 82 81 79 67 70 57 47 44 45 43 39 34
134 134 129 128 125 120 116 114 112 110 107 106 95 86 77 73 72 70 69 63 65 62 58 57 60 71 78 73 70 71 66 49 39 40 39 31 24 19
139 134 131 131 128 125 121 116 113 109 109 99 92 84 78 78 78 73 74 73 69 66 61 59 59 62 67 69 68 65 57 55 38 32 31 30 28 23
143 137 136 133 132 126 122 121 117 115 108 97 90 86 82 79 79 78 75 73 71 66 64 64 61 61 67 65 65 58 50 45 37 35 40 44 43 36
140 138 136 135 130 129 128 126 122 117 108 101 95 88 85 81 79 77 72 68 69 67 66 67 65 64 68 66 60 54 53 50 46 51 58 62 55 46
140 139 138 133 131 131 130 126 122 118 111 106 99 90 84 80 78 77 71 68 68 67 69 68 65 61 65 65 58 52 51 49 50 54 55 53 51 47
141 139 135 134 134 135 131 127 124 120 117 111 101 93 87 83 80 77 72 68 68 68 68 65 63 56 60 66 65 55 53 50 52 53 63 60 58 63
142 137 136 136 135 132 129 127 122 119 117 112 103 96 89 83 82 76 73 72 70 68 67 64 60 58 64 74 70 61 52 48 48 51 72 73 65 60
140 140 139 138 134 133 132 130 125 120 115 111 106 99 93 86 83 80 78 76 74 69 67 68 71 70 69 64 63 58 55 54 60 72 70 63 53 45
143 143 141 137 135 133 132 129 125 120 113 109 106 102 94 88 85 82 79 77 76 76 73 72 74 73 69 64 64 61 63 70 80 77 69 60 55 54